sat.trackr.live / text

‹ back to catalog

COSMOS 2414

NORAD 28521 · 2005-002A

PAYLOAD ACTIVE UNKNOWN

§ Identity

Operator
Country
CIS
Launch date
2005-01-20
Launch site
PLMSC
Launch vehicle
Mass (kg)
RCS (m²)
1.83

Purposes: nav

External: N2YO · Heavens-Above · Gunter

§ Orbital elements

Epoch: 2026-09-19T13:02:29.522400Z

Period
103.75 min
Inclination
82.9529°
Eccentricity
0.0041323
Mean motion
13.87934379 rev/d
Perigee alt
905.7 km
Apogee alt
966.1 km
Semi-major
7,314.0 km
B*
2.5349e-5
RAAN
332.2793°
Arg perigee
61.5028°
Mean anomaly
299.0287°
Rev number
9,690

§ Raw data

COSMOS 24141 28521U 05002A   26262.54339725  .00000046  00000+0  25349-4 0  99972 28521  82.9529 332.2793 0041323  61.5028 299.0287 13.87934379 96904

JSON: /api/v1/satellites/28521 · /tle

For live sub-satellite position, see the globe view (requires WebGL).

§ Visibility from observer

Set your observer location to see the next 7 days of passes ≥ 10°. The values pass through the URL so the page stays shareable.

No JS? Fill the form by hand. The geolocation button needs JavaScript.

§ Radio — SatNOGS DB

ModeDescriptionDownlinkUplink
CW Mode U Tracking Beacon 399.920 MHz
FSK Mode V 3FSK 149.970 MHz

2 transmitters · refreshed weekly from db.satnogs.org